Time,TemperatureF,DewpointF,PressureIn,WindDirection,WindDirectionDegrees,WindSpeedMPH,WindSpeedGustMPH,Humidity,HourlyPrecipIn,Conditions,Clouds,dailyrainin,SoftwareType,DateUTC
2013-03-09 00:04:00,35.1,22.2,29.68,SW,225,1.0,1.0,59,0.00,,,0.00,Weather View 32 v70,2013-03-09 09:04:00,
2013-03-09 00:09:00,35.1,22.2,29.68,SW,225,1.0,1.0,59,0.00,,,0.00,Weather View 32 v70,2013-03-09 09:09:00,
2013-03-09 00:15:00,34.9,21.6,29.68,WNW,292,0.0,1.0,58,0.00,,,0.00,Weather View 32 v70,2013-03-09 09:15:00,
2013-03-09 00:24:00,34.9,21.6,29.70,SSE,158,0.0,1.0,58,0.00,,,0.00,Weather View 32 v70,2013-03-09 09:24:00,
2013-03-09 00:29:00,34.9,21.6,29.70,South,180,0.0,1.0,58,0.00,,,0.00,Weather View 32 v70,2013-03-09 09:29:00,
2013-03-09 00:34:00,35.1,21.8,29.70,SSW,202,0.0,1.0,58,0.00,,,0.00,Weather View 32 v70,2013-03-09 09:34:00,
2013-03-09 00:39:00,35.2,21.5,29.70,ENE,68,0.0,1.0,57,0.00,,,0.00,Weather View 32 v70,2013-03-09 09:39:00,
2013-03-09 00:45:00,35.2,21.9,29.70,SW,225,0.0,1.0,58,0.00,,,0.00,Weather View 32 v70,2013-03-09 09:45:00,
2013-03-09 00:54:00,35.4,21.7,29.70,SE,135,1.0,1.0,57,0.00,,,0.00,Weather View 32 v70,2013-03-09 09:54:00,
2013-03-09 00:59:00,35.6,21.9,29.70,ENE,68,1.0,1.0,57,0.00,,,0.00,Weather View 32 v70,2013-03-09 09:59:00,
2013-03-09 01:04:00,35.8,21.6,29.70,SE,135,1.0,1.0,56,0.00,,,0.00,Weather View 32 v70,2013-03-09 10:04:00,
2013-03-09 01:10:00,35.6,21.9,29.70,SSE,158,1.0,1.0,57,0.00,,,0.00,Weather View 32 v70,2013-03-09 10:10:00,
2013-03-09 01:19:00,35.4,21.7,29.70,SW,225,1.0,1.0,57,0.00,,,0.00,Weather View 32 v70,2013-03-09 10:19:00,
2013-03-09 01:24:00,35.6,21.9,29.70,South,180,1.0,1.0,57,0.00,,,0.00,Weather View 32 v70,2013-03-09 10:24:00,
2013-03-09 01:29:00,35.6,21.9,29.70,South,180,1.0,1.0,57,0.00,,,0.00,Weather View 32 v70,2013-03-09 10:29:00,
2013-03-09 01:34:00,35.4,22.1,29.70,SSE,158,1.0,1.0,58,0.00,,,0.00,Weather View 32 v70,2013-03-09 10:34:00,
2013-03-09 01:44:00,35.1,21.8,29.71,SW,225,0.0,1.0,58,0.00,,,0.00,Weather View 32 v70,2013-03-09 10:44:00,
2013-03-09 01:49:00,35.1,21.8,29.71,ENE,68,0.0,1.0,58,0.00,,,0.00,Weather View 32 v70,2013-03-09 10:49:00,
2013-03-09 01:54:00,34.9,21.6,29.71,ENE,68,0.0,1.0,58,0.00,,,0.00,Weather View 32 v70,2013-03-09 10:54:00,
2013-03-09 02:00:00,34.5,21.7,29.72,ENE,68,0.0,1.0,59,0.00,,,0.00,Weather View 32 v70,2013-03-09 11:00:00,
2013-03-09 02:09:00,34.5,21.7,29.72,SSE,158,0.0,1.0,59,0.00,,,0.00,Weather View 32 v70,2013-03-09 11:09:00,
2013-03-09 02:14:00,34.9,23.2,29.72,North,0,1.0,1.0,62,0.00,,,0.00,Weather View 32 v70,2013-03-09 11:14:00,
2013-03-09 02:19:00,35.1,23.3,29.73,South,180,1.0,1.0,62,0.00,,,0.00,Weather View 32 v70,2013-03-09 11:19:00,
2013-03-09 02:24:00,34.7,23.0,29.73,NNW,338,1.0,1.0,62,0.00,,,0.00,Weather View 32 v70,2013-03-09 11:24:00,
2013-03-09 02:30:00,34.9,23.2,29.73,NE,45,0.0,1.0,62,0.00,,,0.00,Weather View 32 v70,2013-03-09 11:30:00,
2013-03-09 02:39:00,34.5,23.2,29.74,NW,315,0.0,1.0,63,0.00,,,0.00,Weather View 32 v70,2013-03-09 11:39:00,
2013-03-09 02:44:00,34.5,23.6,29.74,SE,135,1.0,1.0,64,0.00,,,0.00,Weather View 32 v70,2013-03-09 11:44:00,
2013-03-09 02:49:00,34.5,24.3,29.74,SE,135,1.0,1.0,66,0.00,,,0.00,Weather View 32 v70,2013-03-09 11:49:00,
2013-03-09 02:59:00,34.3,24.9,29.74,NNW,338,2.0,2.0,68,0.00,,,0.00,Weather View 32 v70,2013-03-09 11:59:00,
2013-03-09 03:04:00,34.2,25.0,29.74,ENE,68,2.0,2.0,69,0.00,,,0.00,Weather View 32 v70,2013-03-09 12:04:00,
2013-03-09 03:09:00,34.0,25.2,29.74,ENE,68,1.0,2.0,70,0.00,,,0.00,Weather View 32 v70,2013-03-09 12:09:00,
2013-03-09 03:14:00,34.0,25.6,29.74,ESE,112,1.0,2.0,71,0.00,,,0.00,Weather View 32 v70,2013-03-09 12:14:00,
2013-03-09 03:20:00,33.8,25.4,29.74,East,90,1.0,2.0,71,0.00,,,0.00,Weather View 32 v70,2013-03-09 12:20:00,
2013-03-09 03:29:00,34.0,25.9,29.74,ENE,68,1.0,2.0,72,0.00,,,0.00,Weather View 32 v70,2013-03-09 12:29:00,
2013-03-09 03:34:00,34.3,26.2,29.74,NNE,22,2.0,2.0,72,0.00,,,0.00,Weather View 32 v70,2013-03-09 12:34:00,
2013-03-09 03:39:00,34.3,25.9,29.74,SE,135,2.0,2.0,71,0.00,,,0.00,Weather View 32 v70,2013-03-09 12:39:00,
2013-03-09 03:44:00,34.3,25.9,29.74,SSE,158,1.0,2.0,71,0.00,,,0.00,Weather View 32 v70,2013-03-09 12:44:00,
2013-03-09 03:54:00,34.2,25.7,29.74,NNW,338,1.0,2.0,71,0.00,,,0.00,Weather View 32 v70,2013-03-09 12:54:00,
2013-03-09 03:59:00,34.2,25.7,29.74,SSW,202,1.0,2.0,71,0.00,,,0.00,Weather View 32 v70,2013-03-09 12:59:00,
2013-03-09 04:04:00,34.3,25.6,29.74,WNW,292,1.0,2.0,70,0.00,,,0.00,Weather View 32 v70,2013-03-09 13:04:00,
2013-03-09 04:09:00,34.3,25.2,29.74,ENE,68,1.0,2.0,69,0.00,,,0.00,Weather View 32 v70,2013-03-09 13:09:00,
2013-03-09 04:19:00,34.0,24.9,29.74,ESE,112,0.0,2.0,69,0.00,,,0.00,Weather View 32 v70,2013-03-09 13:19:00,
2013-03-09 04:24:00,34.0,24.9,29.74,NE,45,1.0,2.0,69,0.00,,,0.00,Weather View 32 v70,2013-03-09 13:24:00,
2013-03-09 04:29:00,34.3,25.2,29.74,SW,225,1.0,2.0,69,0.00,,,0.00,Weather View 32 v70,2013-03-09 13:29:00,
2013-03-09 04:34:00,34.3,24.9,29.74,NNE,22,1.0,2.0,68,0.00,,,0.00,Weather View 32 v70,2013-03-09 13:34:00,
2013-03-09 04:39:00,34.3,24.9,29.74,ENE,68,1.0,2.0,68,0.00,,,0.00,Weather View 32 v70,2013-03-09 13:39:00,
2013-03-09 04:48:00,34.2,24.3,29.74,SSE,158,1.0,1.0,67,0.00,,,0.00,Weather View 32 v70,2013-03-09 13:48:00,
2013-03-09 04:54:00,34.2,24.3,29.74,NE,45,1.0,1.0,67,0.00,,,0.00,Weather View 32 v70,2013-03-09 13:54:00,
2013-03-09 04:59:00,34.2,24.3,29.75,SE,135,1.0,1.0,67,0.00,,,0.00,Weather View 32 v70,2013-03-09 13:59:00,
2013-03-09 05:04:00,34.3,24.2,29.75,ENE,68,2.0,2.0,66,0.00,,,0.00,Weather View 32 v70,2013-03-09 14:04:00,
2013-03-09 05:14:00,34.3,24.2,29.75,SE,135,1.0,2.0,66,0.00,,,0.00,Weather View 32 v70,2013-03-09 14:14:00,
2013-03-09 05:19:00,34.3,24.2,29.76,SSE,158,1.0,2.0,66,0.00,,,0.00,Weather View 32 v70,2013-03-09 14:19:00,
2013-03-09 05:24:00,34.0,23.8,29.76,SE,135,1.0,2.0,66,0.00,,,0.00,Weather View 32 v70,2013-03-09 14:24:00,
2013-03-09 05:30:00,34.2,24.0,29.76,NNE,22,2.0,2.0,66,0.00,,,0.00,Weather View 32 v70,2013-03-09 14:30:00,
2013-03-09 05:39:00,33.3,23.1,29.76,ENE,68,1.0,2.0,66,0.00,,,0.00,Weather View 32 v70,2013-03-09 14:39:00,
2013-03-09 05:44:00,33.4,23.3,29.76,NNE,22,1.0,2.0,66,0.00,,,0.00,Weather View 32 v70,2013-03-09 14:44:00,
2013-03-09 05:49:00,33.4,23.3,29.76,NW,315,1.0,2.0,66,0.00,,,0.00,Weather View 32 v70,2013-03-09 14:49:00,
2013-03-09 05:55:00,33.3,23.1,29.76,NE,45,0.0,2.0,66,0.00,,,0.00,Weather View 32 v70,2013-03-09 14:55:00,
2013-03-09 06:04:00,33.4,22.9,29.76,NE,45,1.0,2.0,65,0.00,,,0.00,Weather View 32 v70,2013-03-09 15:04:00,
2013-03-09 06:09:00,33.4,23.3,29.76,SW,225,1.0,2.0,66,0.00,,,0.00,Weather View 32 v70,2013-03-09 15:09:00,
2013-03-09 06:14:00,33.3,23.1,29.76,NNE,22,1.0,2.0,66,0.00,,,0.00,Weather View 32 v70,2013-03-09 15:14:00,
2013-03-09 06:19:00,33.4,23.3,29.77,SE,135,1.0,2.0,66,0.00,,,0.00,Weather View 32 v70,2013-03-09 15:19:00,
2013-03-09 06:29:00,33.1,23.0,29.77,NNE,22,0.0,2.0,66,0.00,,,0.00,Weather View 32 v70,2013-03-09 15:29:00,
2013-03-09 06:34:00,33.1,23.0,29.77,NNE,22,0.0,1.0,66,0.00,,,0.00,Weather View 32 v70,2013-03-09 15:34:00,
2013-03-09 06:39:00,32.9,22.8,29.77,ENE,68,1.0,1.0,66,0.00,,,0.00,Weather View 32 v70,2013-03-09 15:39:00,
2013-03-09 06:44:00,33.1,23.0,29.77,West,270,1.0,1.0,66,0.00,,,0.00,Weather View 32 v70,2013-03-09 15:44:00,
2013-03-09 06:54:00,33.4,23.3,29.77,East,90,1.0,1.0,66,0.00,,,0.00,Weather View 32 v70,2013-03-09 15:54:00,
2013-03-09 06:59:00,33.4,23.3,29.77,ENE,68,1.0,1.0,66,0.00,,,0.00,Weather View 32 v70,2013-03-09 15:59:00,
2013-03-09 07:04:00,33.3,23.1,29.77,SE,135,1.0,1.0,66,0.00,,,0.00,Weather View 32 v70,2013-03-09 16:04:00,
2013-03-09 07:09:00,33.4,22.9,29.77,SE,135,1.0,1.0,65,0.00,,,0.00,Weather View 32 v70,2013-03-09 16:09:00,
2013-03-09 07:19:00,33.3,22.4,29.79,South,180,1.0,1.0,64,0.00,,,0.00,Weather View 32 v70,2013-03-09 16:19:00,
2013-03-09 07:24:00,33.1,22.6,29.79,ENE,68,1.0,1.0,65,0.00,,,0.00,Weather View 32 v70,2013-03-09 16:24:00,
2013-03-09 07:29:00,33.1,22.6,29.79,SE,135,1.0,1.0,65,0.00,,,0.00,Weather View 32 v70,2013-03-09 16:29:00,
2013-03-09 07:34:00,33.1,22.2,29.79,East,90,1.0,1.0,64,0.00,,,0.00,Weather View 32 v70,2013-03-09 16:34:00,
2013-03-09 07:40:00,33.3,22.4,29.78,SW,225,1.0,1.0,64,0.00,,,0.00,Weather View 32 v70,2013-03-09 16:40:00,
2013-03-09 07:50:00,33.1,22.2,29.78,ENE,68,1.0,1.0,64,0.00,,,0.00,Weather View 32 v70,2013-03-09 16:50:00,
2013-03-09 07:59:00,32.9,22.0,29.79,East,90,1.0,1.0,64,0.00,,,0.00,Weather View 32 v70,2013-03-09 16:59:00,
2013-03-09 08:09:00,32.9,22.0,29.79,ENE,68,1.0,1.0,64,0.00,,,0.00,Weather View 32 v70,2013-03-09 17:09:00,
2013-03-09 08:14:00,33.1,22.2,29.79,SW,225,1.0,1.0,64,0.00,,,0.00,Weather View 32 v70,2013-03-09 17:14:00,
2013-03-09 08:19:00,33.3,22.4,29.80,ESE,112,1.0,1.0,64,0.00,,,0.00,Weather View 32 v70,2013-03-09 17:19:00,
2013-03-09 08:24:00,33.3,22.0,29.80,ENE,68,1.0,1.0,63,0.00,,,0.00,Weather View 32 v70,2013-03-09 17:24:00,
2013-03-09 08:30:00,33.3,22.0,29.80,SSE,158,1.0,1.0,63,0.00,,,0.00,Weather View 32 v70,2013-03-09 17:30:00,
2013-03-09 08:39:00,33.8,22.1,29.79,ESE,112,1.0,1.0,62,0.00,,,0.00,Weather View 32 v70,2013-03-09 17:39:00,
2013-03-09 08:44:00,34.0,21.9,29.79,SE,135,1.0,1.0,61,0.00,,,0.00,Weather View 32 v70,2013-03-09 17:44:00,
2013-03-09 08:49:00,34.0,21.9,29.79,ENE,68,1.0,1.0,61,0.00,,,0.00,Weather View 32 v70,2013-03-09 17:49:00,
2013-03-09 08:59:00,34.2,21.7,29.79,ESE,112,1.0,1.0,60,0.00,,,0.00,Weather View 32 v70,2013-03-09 17:59:00,
2013-03-09 09:04:00,34.5,21.7,29.79,ENE,68,1.0,1.0,59,0.00,,,0.00,Weather View 32 v70,2013-03-09 18:04:00,
2013-03-09 09:09:00,34.5,21.7,29.79,ENE,68,1.0,1.0,59,0.00,,,0.00,Weather View 32 v70,2013-03-09 18:09:00,
2013-03-09 09:14:00,34.9,22.0,29.79,NNE,22,1.0,1.0,59,0.00,,,0.00,Weather View 32 v70,2013-03-09 18:14:00,
2013-03-09 09:24:00,35.2,22.3,29.81,SSE,158,0.0,1.0,59,0.00,,,0.00,Weather View 32 v70,2013-03-09 18:24:00,
2013-03-09 09:29:00,35.8,22.8,29.81,West,270,1.0,1.0,59,0.00,,,0.00,Weather View 32 v70,2013-03-09 18:29:00,
2013-03-09 09:34:00,36.0,23.0,29.81,SE,135,1.0,1.0,59,0.00,,,0.00,Weather View 32 v70,2013-03-09 18:34:00,
2013-03-09 09:40:00,36.1,22.8,29.81,ESE,112,1.0,1.0,58,0.00,,,0.00,Weather View 32 v70,2013-03-09 18:40:00,
2013-03-09 09:49:00,36.7,23.3,29.81,West,270,1.0,1.0,58,0.00,,,0.00,Weather View 32 v70,2013-03-09 18:49:00,
2013-03-09 09:54:00,36.9,23.4,29.81,WSW,248,1.0,1.0,58,0.00,,,0.00,Weather View 32 v70,2013-03-09 18:54:00,
2013-03-09 10:00:00,37.2,23.4,29.82,NNW,338,1.0,1.0,57,0.00,,,0.00,Weather View 32 v70,2013-03-09 19:00:00,
2013-03-09 10:09:00,38.1,23.4,29.82,SE,135,1.0,1.0,55,0.00,,,0.00,Weather View 32 v70,2013-03-09 19:09:00,
2013-03-09 10:14:00,38.7,23.9,29.82,SE,135,1.0,1.0,55,0.00,,,0.00,Weather View 32 v70,2013-03-09 19:14:00,
2013-03-09 10:19:00,38.8,24.0,29.83,ESE,112,1.0,1.0,55,0.00,,,0.00,Weather View 32 v70,2013-03-09 19:19:00,
2013-03-09 10:24:00,39.6,24.7,29.83,South,180,1.0,1.0,55,0.00,,,0.00,Weather View 32 v70,2013-03-09 19:24:00,
2013-03-09 10:34:00,40.1,24.3,29.83,ESE,112,1.0,1.0,53,0.00,,,0.00,Weather View 32 v70,2013-03-09 19:34:00,
2013-03-09 10:39:00,39.9,24.2,29.85,SSW,202,1.0,1.0,53,0.00,,,0.00,Weather View 32 v70,2013-03-09 19:39:00,
2013-03-09 10:45:00,39.9,23.7,29.85,SE,135,1.0,1.0,52,0.00,,,0.00,Weather View 32 v70,2013-03-09 19:45:00,
2013-03-09 10:52:00,40.1,23.9,29.85,South,180,1.0,1.0,52,0.00,,,0.00,Weather View 32 v70,2013-03-09 19:52:00,
2013-03-09 11:00:00,40.1,23.9,29.85,SSW,202,1.0,1.0,52,0.00,,,0.00,Weather View 32 v70,2013-03-09 20:00:00,
2013-03-09 11:09:00,40.1,23.9,29.85,ENE,68,1.0,1.0,52,0.00,,,0.00,Weather View 32 v70,2013-03-09 20:09:00,
2013-03-09 11:14:00,40.1,23.4,29.85,NE,45,1.0,1.0,51,0.00,,,0.00,Weather View 32 v70,2013-03-09 20:14:00,
2013-03-09 11:19:00,40.1,23.4,29.87,NNE,22,1.0,1.0,51,0.00,,,0.00,Weather View 32 v70,2013-03-09 20:19:00,
2013-03-09 11:29:00,41.4,24.6,29.87,ESE,112,1.0,1.0,51,0.00,,,0.00,Weather View 32 v70,2013-03-09 20:29:00,
2013-03-09 11:34:00,41.5,23.8,29.87,NE,45,1.0,1.0,49,0.00,,,0.00,Weather View 32 v70,2013-03-09 20:34:00,
2013-03-09 11:39:00,41.5,23.8,29.87,SE,135,1.0,1.0,49,0.00,,,0.00,Weather View 32 v70,2013-03-09 20:39:00,
2013-03-09 11:44:00,41.4,24.1,29.87,East,90,1.0,1.0,50,0.00,,,0.00,Weather View 32 v70,2013-03-09 20:44:00,
2013-03-09 11:50:00,41.4,23.6,29.87,South,180,1.0,1.0,49,0.00,,,0.00,Weather View 32 v70,2013-03-09 20:50:00,
2013-03-09 11:59:00,41.4,23.6,29.88,East,90,1.0,1.0,49,0.00,,,0.00,Weather View 32 v70,2013-03-09 20:59:00,
2013-03-09 12:04:00,41.5,23.8,29.88,SSE,158,1.0,1.0,49,0.00,,,0.00,Weather View 32 v70,2013-03-09 21:04:00,
2013-03-09 12:09:00,41.5,23.8,29.88,SSE,158,1.0,1.0,49,0.00,,,0.00,Weather View 32 v70,2013-03-09 21:09:00,
2013-03-09 12:14:00,42.6,23.8,29.88,South,180,1.0,1.0,47,0.00,,,0.00,Weather View 32 v70,2013-03-09 21:14:00,
2013-03-09 12:24:00,42.8,22.9,29.89,South,180,2.0,2.0,45,0.00,,,0.00,Weather View 32 v70,2013-03-09 21:24:00,
2013-03-09 12:29:00,43.3,23.9,29.89,South,180,1.0,2.0,46,0.00,,,0.00,Weather View 32 v70,2013-03-09 21:29:00,
2013-03-09 12:39:00,43.9,23.9,29.89,SSE,158,1.0,2.0,45,0.00,,,0.00,Weather View 32 v70,2013-03-09 21:39:00,
2013-03-09 12:44:00,43.3,23.4,29.89,West,270,1.0,2.0,45,0.00,,,0.00,Weather View 32 v70,2013-03-09 21:44:00,
2013-03-09 12:49:00,42.8,22.4,29.89,SSE,158,1.0,2.0,44,0.00,,,0.00,Weather View 32 v70,2013-03-09 21:49:00,
2013-03-09 12:54:00,42.8,22.4,29.89,West,270,1.0,2.0,44,0.00,,,0.00,Weather View 32 v70,2013-03-09 21:54:00,
2013-03-09 13:04:00,43.0,22.5,29.89,SW,225,1.0,2.0,44,0.00,,,0.00,Weather View 32 v70,2013-03-09 22:04:00,
2013-03-09 13:09:00,42.8,22.9,29.89,South,180,1.0,2.0,45,0.00,,,0.00,Weather View 32 v70,2013-03-09 22:09:00,
2013-03-09 13:14:00,43.2,23.2,29.89,ENE,68,1.0,2.0,45,0.00,,,0.00,Weather View 32 v70,2013-03-09 22:14:00,
2013-03-09 13:19:00,43.2,22.7,29.89,SSE,158,1.0,2.0,44,0.00,,,0.00,Weather View 32 v70,2013-03-09 22:19:00,
2013-03-09 13:29:00,43.5,23.0,29.89,SSE,158,1.0,1.0,44,0.00,,,0.00,Weather View 32 v70,2013-03-09 22:29:00,
2013-03-09 13:34:00,43.5,22.5,29.89,West,270,1.0,1.0,43,0.00,,,0.00,Weather View 32 v70,2013-03-09 22:34:00,
2013-03-09 13:39:00,43.5,21.9,29.89,West,270,1.0,1.0,42,0.00,,,0.00,Weather View 32 v70,2013-03-09 22:39:00,
2013-03-09 13:49:00,43.7,22.6,29.89,SW,225,1.0,1.0,43,0.00,,,0.00,Weather View 32 v70,2013-03-09 22:49:00,
2013-03-09 13:54:00,44.1,21.8,29.89,WSW,248,1.0,1.0,41,0.00,,,0.00,Weather View 32 v70,2013-03-09 22:54:00,
2013-03-09 13:59:00,44.4,23.3,29.90,WNW,292,0.0,1.0,43,0.00,,,0.00,Weather View 32 v70,2013-03-09 22:59:00,
2013-03-09 14:04:00,44.6,24.0,29.90,WSW,248,0.0,1.0,44,0.00,,,0.00,Weather View 32 v70,2013-03-09 23:04:00,
2013-03-09 14:14:00,45.1,23.9,29.90,North,0,0.0,1.0,43,0.00,,,0.00,Weather View 32 v70,2013-03-09 23:14:00,
2013-03-09 14:19:00,45.0,24.3,29.90,WNW,292,0.0,1.0,44,0.00,,,0.00,Weather View 32 v70,2013-03-09 23:19:00,
2013-03-09 14:24:00,44.4,23.8,29.90,SSE,158,0.0,1.0,44,0.00,,,0.00,Weather View 32 v70,2013-03-09 23:24:00,
2013-03-09 14:30:00,44.6,24.0,29.90,ENE,68,0.0,1.0,44,0.00,,,0.00,Weather View 32 v70,2013-03-09 23:30:00,
2013-03-09 14:39:00,45.1,25.0,29.90,WSW,248,0.0,1.0,45,0.00,,,0.00,Weather View 32 v70,2013-03-09 23:39:00,
2013-03-09 14:44:00,45.1,25.6,29.90,WSW,248,0.0,1.0,46,0.00,,,0.00,Weather View 32 v70,2013-03-09 23:44:00,
2013-03-09 14:49:00,45.0,24.9,29.90,WNW,292,0.0,1.0,45,0.00,,,0.00,Weather View 32 v70,2013-03-09 23:49:00,
2013-03-09 14:59:00,44.4,23.3,29.90,ENE,68,0.0,0.0,43,0.00,,,0.00,Weather View 32 v70,2013-03-09 23:59:00,
2013-03-09 15:04:00,44.8,23.6,29.90,NE,45,0.0,0.0,43,0.00,,,0.00,Weather View 32 v70,2013-03-10 00:04:00,
2013-03-09 15:09:00,44.8,23.6,29.90,NE,45,0.0,0.0,43,0.00,,,0.00,Weather View 32 v70,2013-03-10 00:09:00,
2013-03-09 15:19:00,45.0,23.8,29.91,South,180,0.0,0.0,43,0.00,,,0.00,Weather View 32 v70,2013-03-10 00:19:00,
2013-03-09 15:24:00,44.8,23.1,29.91,NE,45,0.0,0.0,42,0.00,,,0.00,Weather View 32 v70,2013-03-10 00:24:00,
2013-03-09 15:29:00,45.0,23.8,29.91,NE,45,0.0,0.0,43,0.00,,,0.00,Weather View 32 v70,2013-03-10 00:29:00,
2013-03-09 15:35:00,44.4,23.3,29.91,South,180,0.0,0.0,43,0.00,,,0.00,Weather View 32 v70,2013-03-10 00:35:00,
2013-03-09 15:44:00,44.2,23.1,29.91,WSW,248,0.0,0.0,43,0.00,,,0.00,Weather View 32 v70,2013-03-10 00:44:00,
2013-03-09 15:49:00,44.2,23.7,29.91,South,180,0.0,0.0,44,0.00,,,0.00,Weather View 32 v70,2013-03-10 00:49:00,
2013-03-09 15:59:00,43.5,21.9,29.91,WSW,248,1.0,1.0,42,0.00,,,0.00,Weather View 32 v70,2013-03-10 00:59:00,
2013-03-09 16:04:00,43.9,22.8,29.91,WSW,248,1.0,1.0,43,0.00,,,0.00,Weather View 32 v70,2013-03-10 01:04:00,
2013-03-09 16:09:00,43.7,22.6,29.91,WSW,248,1.0,1.0,43,0.00,,,0.00,Weather View 32 v70,2013-03-10 01:09:00,
2013-03-09 16:14:00,43.7,23.2,29.91,WSW,248,1.0,1.0,44,0.00,,,0.00,Weather View 32 v70,2013-03-10 01:14:00,
2013-03-09 16:24:00,42.6,22.2,29.92,SSW,202,0.0,1.0,44,0.00,,,0.00,Weather View 32 v70,2013-03-10 01:24:00,
2013-03-09 16:29:00,42.6,22.7,29.92,West,270,1.0,1.0,45,0.00,,,0.00,Weather View 32 v70,2013-03-10 01:29:00,
2013-03-09 16:34:00,42.4,23.1,29.92,SW,225,0.0,1.0,46,0.00,,,0.00,Weather View 32 v70,2013-03-10 01:34:00,
2013-03-09 16:44:00,42.4,23.1,29.91,WSW,248,0.0,1.0,46,0.00,,,0.00,Weather View 32 v70,2013-03-10 01:44:00,
2013-03-09 16:49:00,42.1,22.8,29.91,WSW,248,1.0,1.0,46,0.00,,,0.00,Weather View 32 v70,2013-03-10 01:49:00,
2013-03-09 16:55:00,41.7,22.9,29.91,WSW,248,1.0,1.0,47,0.00,,,0.00,Weather View 32 v70,2013-03-10 01:55:00,
2013-03-09 17:04:00,41.7,22.9,29.91,WSW,248,0.0,1.0,47,0.00,,,0.00,Weather View 32 v70,2013-03-10 02:04:00,
2013-03-09 17:09:00,41.7,22.9,29.91,SW,225,0.0,1.0,47,0.00,,,0.00,Weather View 32 v70,2013-03-10 02:09:00,
2013-03-09 17:14:00,41.5,23.3,29.91,NW,315,0.0,1.0,48,0.00,,,0.00,Weather View 32 v70,2013-03-10 02:14:00,
2013-03-09 17:19:00,41.4,23.6,29.91,WSW,248,0.0,1.0,49,0.00,,,0.00,Weather View 32 v70,2013-03-10 02:19:00,
2013-03-09 17:24:00,41.0,22.8,29.91,SW,225,0.0,1.0,48,0.00,,,0.00,Weather View 32 v70,2013-03-10 02:24:00,
2013-03-09 17:29:00,40.8,22.6,29.91,SSW,202,0.0,1.0,48,0.00,,,0.00,Weather View 32 v70,2013-03-10 02:29:00,
2013-03-09 17:39:00,40.3,21.1,29.92,ESE,112,2.0,2.0,46,0.00,,,0.00,Weather View 32 v70,2013-03-10 02:39:00,
2013-03-09 17:44:00,40.1,21.5,29.92,North,0,1.0,2.0,47,0.00,,,0.00,Weather View 32 v70,2013-03-10 02:44:00,
2013-03-09 17:49:00,39.6,22.0,29.92,NW,315,0.0,2.0,49,0.00,,,0.00,Weather View 32 v70,2013-03-10 02:49:00,
2013-03-09 17:54:00,39.4,21.8,29.92,NW,315,0.0,2.0,49,0.00,,,0.00,Weather View 32 v70,2013-03-10 02:54:00,
2013-03-09 18:04:00,38.8,21.8,29.93,NNW,338,0.0,2.0,50,0.00,,,0.00,Weather View 32 v70,2013-03-10 03:04:00,
2013-03-09 18:09:00,38.8,21.8,29.93,NNW,338,0.0,2.0,50,0.00,,,0.00,Weather View 32 v70,2013-03-10 03:09:00,
2013-03-09 18:14:00,38.3,21.7,29.93,West,270,0.0,2.0,51,0.00,,,0.00,Weather View 32 v70,2013-03-10 03:14:00,
2013-03-09 18:19:00,38.1,21.6,29.92,SW,225,1.0,2.0,51,0.00,,,0.00,Weather View 32 v70,2013-03-10 03:19:00,
2013-03-09 18:29:00,37.9,21.4,29.92,SE,135,0.0,2.0,51,0.00,,,0.00,Weather View 32 v70,2013-03-10 03:29:00,
2013-03-09 18:34:00,37.4,21.4,29.92,North,0,0.0,2.0,52,0.00,,,0.00,Weather View 32 v70,2013-03-10 03:34:00,
2013-03-09 18:39:00,37.2,21.6,29.93,NE,45,0.0,2.0,53,0.00,,,0.00,Weather View 32 v70,2013-03-10 03:39:00,
2013-03-09 18:44:00,36.7,21.6,29.93,SE,135,0.0,1.0,54,0.00,,,0.00,Weather View 32 v70,2013-03-10 03:44:00,
2013-03-09 18:54:00,36.1,21.5,29.93,NNW,338,0.0,1.0,55,0.00,,,0.00,Weather View 32 v70,2013-03-10 03:54:00,
2013-03-09 18:59:00,36.0,21.3,29.94,WSW,248,0.0,1.0,55,0.00,,,0.00,Weather View 32 v70,2013-03-10 03:59:00,
2013-03-09 19:04:00,35.6,21.4,29.94,NE,45,0.0,1.0,56,0.00,,,0.00,Weather View 32 v70,2013-03-10 04:04:00,
2013-03-09 19:09:00,35.4,21.3,29.94,ENE,68,0.0,1.0,56,0.00,,,0.00,Weather View 32 v70,2013-03-10 04:09:00,
2013-03-09 19:19:00,34.9,21.2,29.94,ESE,112,0.0,1.0,57,0.00,,,0.00,Weather View 32 v70,2013-03-10 04:19:00,
2013-03-09 19:24:00,34.7,21.0,29.94,ENE,68,0.0,1.0,57,0.00,,,0.00,Weather View 32 v70,2013-03-10 04:24:00,
2013-03-09 19:29:00,34.5,21.3,29.94,ENE,68,0.0,1.0,58,0.00,,,0.00,Weather View 32 v70,2013-03-10 04:29:00,
2013-03-09 19:34:00,34.3,21.1,29.94,East,90,0.0,0.0,58,0.00,,,0.00,Weather View 32 v70,2013-03-10 04:34:00,
2013-03-09 19:44:00,33.8,21.8,29.95,East,90,0.0,0.0,61,0.00,,,0.00,Weather View 32 v70,2013-03-10 04:44:00,
2013-03-09 19:49:00,34.0,21.9,29.95,SE,135,0.0,0.0,61,0.00,,,0.00,Weather View 32 v70,2013-03-10 04:49:00,
2013-03-09 19:54:00,33.8,21.8,29.95,ENE,68,0.0,0.0,61,0.00,,,0.00,Weather View 32 v70,2013-03-10 04:54:00,
2013-03-09 19:59:00,33.8,21.8,29.96,ESE,112,0.0,0.0,61,0.00,,,0.00,Weather View 32 v70,2013-03-10 04:59:00,
2013-03-09 20:04:00,33.8,22.1,29.96,ENE,68,0.0,0.0,62,0.00,,,0.00,Weather View 32 v70,2013-03-10 05:04:00,
2013-03-09 20:09:00,33.6,22.0,29.96,ESE,112,0.0,0.0,62,0.00,,,0.00,Weather View 32 v70,2013-03-10 05:09:00,
2013-03-09 20:14:00,33.6,22.4,29.96,ESE,112,0.0,0.0,63,0.00,,,0.00,Weather View 32 v70,2013-03-10 05:14:00,
2013-03-09 20:19:00,33.6,22.4,29.97,ENE,68,0.0,0.0,63,0.00,,,0.00,Weather View 32 v70,2013-03-10 05:19:00,
2013-03-09 20:24:00,33.6,22.4,29.97,East,90,0.0,0.0,63,0.00,,,0.00,Weather View 32 v70,2013-03-10 05:24:00,
2013-03-09 20:29:00,33.4,22.6,29.97,ESE,112,0.0,0.0,64,0.00,,,0.00,Weather View 32 v70,2013-03-10 05:29:00,
2013-03-09 20:39:00,34.0,23.4,29.97,ENE,68,1.0,1.0,65,0.00,,,0.00,Weather View 32 v70,2013-03-10 05:39:00,
2013-03-09 20:44:00,34.0,23.4,29.97,ENE,68,0.0,1.0,65,0.00,,,0.00,Weather View 32 v70,2013-03-10 05:44:00,
2013-03-09 20:49:00,34.0,23.4,29.97,ENE,68,0.0,1.0,65,0.00,,,0.00,Weather View 32 v70,2013-03-10 05:49:00,
2013-03-09 20:57:00,34.0,23.4,29.97,East,90,0.0,1.0,65,0.00,,,0.00,Weather View 32 v70,2013-03-10 05:57:00,
2013-03-09 21:04:00,33.8,23.3,29.97,NE,45,0.0,1.0,65,0.00,,,0.00,Weather View 32 v70,2013-03-10 06:04:00,
2013-03-09 21:09:00,33.8,23.3,29.97,North,0,0.0,1.0,65,0.00,,,0.00,Weather View 32 v70,2013-03-10 06:09:00,
2013-03-09 21:14:00,33.8,23.6,29.97,NNE,22,0.0,1.0,66,0.00,,,0.00,Weather View 32 v70,2013-03-10 06:14:00,
2013-03-09 21:24:00,34.3,24.9,29.98,NE,45,1.0,1.0,68,0.00,,,0.00,Weather View 32 v70,2013-03-10 06:24:00,
2013-03-09 21:29:00,34.3,25.2,29.98,NNE,22,1.0,1.0,69,0.00,,,0.00,Weather View 32 v70,2013-03-10 06:29:00,
2013-03-09 21:34:00,34.0,24.9,29.98,NE,45,1.0,2.0,69,0.00,,,0.00,Weather View 32 v70,2013-03-10 06:34:00,
2013-03-09 21:39:00,34.0,24.9,29.99,ENE,68,1.0,2.0,69,0.00,,,0.00,Weather View 32 v70,2013-03-10 06:39:00,
2013-03-09 21:49:00,33.8,26.1,29.99,NE,45,1.0,2.0,73,0.00,,,0.00,Weather View 32 v70,2013-03-10 06:49:00,
2013-03-09 21:54:00,33.6,25.9,29.99,NW,315,0.0,2.0,73,0.00,,,0.00,Weather View 32 v70,2013-03-10 06:54:00,
2013-03-09 22:04:00,33.3,25.9,29.99,NE,45,0.0,2.0,74,0.00,,,0.00,Weather View 32 v70,2013-03-10 07:04:00,
2013-03-09 22:09:00,33.3,26.2,29.99,ENE,68,0.0,2.0,75,0.00,,,0.00,Weather View 32 v70,2013-03-10 07:09:00,
2013-03-09 22:14:00,33.1,26.0,29.99,NNE,22,0.0,2.0,75,0.00,,,0.00,Weather View 32 v70,2013-03-10 07:14:00,
2013-03-09 22:24:00,33.1,26.3,30.00,ESE,112,0.0,2.0,76,0.00,,,0.00,Weather View 32 v70,2013-03-10 07:24:00,
2013-03-09 22:29:00,32.9,26.5,30.00,SE,135,0.0,2.0,77,0.00,,,0.00,Weather View 32 v70,2013-03-10 07:29:00,
2013-03-09 22:34:00,32.9,26.5,30.00,ESE,112,0.0,2.0,77,0.00,,,0.00,Weather View 32 v70,2013-03-10 07:34:00,
2013-03-09 22:44:00,32.7,26.3,30.00,SE,135,0.0,2.0,77,0.00,,,0.00,Weather View 32 v70,2013-03-10 07:44:00,
2013-03-09 22:50:00,32.5,26.4,30.00,SE,135,0.0,1.0,78,0.00,,,0.00,Weather View 32 v70,2013-03-10 07:50:00,
2013-03-09 22:58:00,32.5,26.4,30.00,WSW,248,0.0,1.0,78,0.00,,,0.00,Weather View 32 v70,2013-03-10 07:58:00,
2013-03-09 23:04:00,32.5,26.7,30.00,WSW,248,0.0,0.0,79,0.00,,,0.00,Weather View 32 v70,2013-03-10 08:04:00,
2013-03-09 23:09:00,32.5,26.7,30.00,West,270,0.0,0.0,79,0.00,,,0.00,Weather View 32 v70,2013-03-10 08:09:00,
2013-03-09 23:14:00,32.5,27.7,30.00,WSW,248,0.0,0.0,82,0.00,,,0.00,Weather View 32 v70,2013-03-10 08:14:00,
2013-03-09 23:24:00,32.5,29.1,30.01,SSE,158,0.0,0.0,87,0.00,,,0.00,Weather View 32 v70,2013-03-10 08:24:00,
2013-03-09 23:29:00,32.5,29.4,30.01,SSE,158,0.0,0.0,88,0.00,,,0.00,Weather View 32 v70,2013-03-10 08:29:00,
2013-03-09 23:34:00,32.5,30.5,30.01,South,180,0.0,0.0,92,0.00,,,0.00,Weather View 32 v70,2013-03-10 08:34:00,
2013-03-09 23:44:00,32.5,31.3,30.01,SW,225,0.0,0.0,95,0.00,,,0.00,Weather View 32 v70,2013-03-10 08:44:00,
2013-03-09 23:49:00,32.5,31.5,30.01,SW,225,0.0,0.0,96,0.00,,,0.00,Weather View 32 v70,2013-03-10 08:49:00,
2013-03-09 23:54:00,32.5,31.5,30.01,SW,225,0.0,0.0,96,0.00,,,0.00,Weather View 32 v70,2013-03-10 08:54:00,